GW3802 Weather Reports


time (UTC)temp
F
wind
direction
speed
knots
gust
knots
rain 1hr
in
rain 24hr
in
rain mn
in
humidity
%
barometer
mb
20260503180322 62 316 6.1 11.3 0.00 0.00 0.00 31 1008.5
20260503175818 62 243 3.5 7.0 0.00 0.00 0.00 31 1008.8
20260503175316 60 242 7.0 11.3 0.00 0.00 0.00 32 1008.8
20260503174811 60 310 10.4 13.9 0.00 0.00 0.00 29 1008.8
20260503174310 61 322 5.2 15.6 0.00 0.00 0.00 29 1009.2
20260503173805 61 311 5.2 12.2 0.00 0.00 0.00 32 1008.8
20260503173301 61 282 7.0 8.7 0.00 0.00 0.00 30 1008.8
20260503172758 60 290 5.2 7.8 0.00 0.00 0.00 31 1008.8
20260503172256 60 245 7.0 11.3 0.00 0.00 0.00 28 1009.2
20260503171752 60 280 6.1 13.9 0.00 0.00 0.00 30 1009.2
20260503171249 60 282 2.6 9.6 0.00 0.00 0.00 33 1009.2
20260503170746 60 311 3.5 9.6 0.00 0.00 0.00 33 1009.5
20260503170243 59 344 5.2 13.0 0.00 0.00 0.00 33 1009.5
20260503160205 60 258 5.2 7.8 0.00 0.00 0.00 29 1009.5
20260503150635 59 325 4.3 8.7 0.00 0.00 0.00 34 1010.2
20260503150131 57 292 2.6 7.8 0.00 0.00 0.00 36 1010.6
20260503131025 48 330 3.5 5.2 0.00 0.00 0.00 46 1011.0
20260503130522 48 295 2.6 6.1 0.00 0.00 0.00 44 1011.3
20260503110413 33 277 0.0 0.0 0.00 0.00 0.00 77 1012.0
20260503090303 33 297 0.0 0.0 0.00 0.00 0.00 71 1012.6
20260503081236 34 286 0.0 0.0 0.00 0.00 0.00 69 1012.6
20260503080732 34 289 0.0 0.9 0.00 0.00 0.00 69 1012.6
20260503080229 34 288 0.0 0.0 0.00 0.00 0.00 68 1012.6
20260503072706 36 286 0.9 0.9 0.00 0.00 0.00 64 1012.6
20260503072203 36 277 0.9 1.7 0.00 0.00 0.00 64 1012.6
20260503071659 36 299 0.0 1.7 0.00 0.00 0.00 63 1013.0
20260503071156 36 265 0.9 1.7 0.00 0.00 0.00 64 1012.6
20260503070653 36 280 0.0 1.7 0.00 0.00 0.00 63 1012.6
20260503070152 37 284 0.0 1.7 0.00 0.00 0.00 62 1012.6
20260503060115 37 296 0.0 0.9 0.00 0.00 0.00 60 1013.0
20260503055107 38 284 0.0 1.7 0.00 0.00 0.00 59 1013.0
20260503054602 37 288 0.0 2.6 0.00 0.00 0.00 59 1013.0
20260503054100 37 291 0.9 1.7 0.00 0.00 0.00 61 1013.0
20260503053558 36 260 0.0 1.7 0.00 0.00 0.00 64 1013.3
20260503053055 35 263 0.0 0.0 0.00 0.00 0.00 67 1013.3
20260503052552 34 263 0.0 0.0 0.00 0.00 0.00 70 1013.3
20260503052048 34 263 0.0 0.0 0.00 0.00 0.00 71 1013.3
20260503051544 34 263 0.0 0.0 0.00 0.00 0.00 72 1013.3
20260503051042 34 263 0.0 0.0 0.00 0.00 0.00 72 1013.3
20260503050537 34 263 0.0 0.0 0.00 0.00 0.00 72 1013.3
20260503050035 34 263 0.0 0.0 0.00 0.00 0.00 72 1013.7
20260503045532 34 262 0.0 0.9 0.00 0.00 0.00 74 1013.3
20260503045029 33 269 0.0 0.0 0.00 0.00 0.00 75 1013.7
20260503044526 33 269 0.0 0.0 0.00 0.00 0.00 75 1013.7
20260503044024 33 269 0.0 0.0 0.00 0.00 0.00 75 1013.7
20260503043519 33 269 0.0 0.0 0.00 0.00 0.00 76 1013.7
20260503043016 33 269 0.0 0.0 0.00 0.00 0.00 76 1013.7
20260503042513 33 269 0.0 0.0 0.00 0.00 0.00 75 1013.7
20260503042009 33 269 0.0 0.0 0.00 0.00 0.00 75 1013.7
20260503041507 33 269 0.0 0.0 0.00 0.00 0.00 75 1013.7
20260503041004 33 269 0.0 0.0 0.00 0.00 0.00 75 1013.7
20260503040501 33 269 0.0 0.0 0.00 0.00 0.00 75 1013.7
20260503035958 33 269 0.0 0.0 0.00 0.00 0.00 75 1013.7
20260503035455 33 269 0.0 0.0 0.00 0.00 0.00 75 1013.7
20260503034953 34 269 0.0 0.0 0.00 0.00 0.00 75 1014.0
20260503034450 34 269 0.0 0.0 0.00 0.00 0.00 74 1013.7
20260503033947 34 269 0.0 0.0 0.00 0.00 0.00 74 1014.0
20260503033444 34 269 0.0 0.0 0.00 0.00 0.00 73 1014.0
20260503032942 34 269 0.0 0.0 0.00 0.00 0.00 73 1014.0
20260503032435 34 269 0.0 0.0 0.00 0.00 0.00 73 1014.0
20260503031932 35 269 0.0 0.0 0.00 0.00 0.00 73 1014.0
20260503031430 35 269 0.0 0.0 0.00 0.00 0.00 73 1014.0
20260503030926 36 269 0.0 0.0 0.00 0.00 0.00 74 1014.0
20260503030423 36 268 0.0 0.0 0.00 0.00 0.00 74 1014.0
20260503025919 37 268 0.0 0.0 0.00 0.00 0.00 74 1014.0
20260503025416 36 268 0.0 0.0 0.00 0.00 0.00 73 1014.0
20260503024914 36 269 0.0 0.0 0.00 0.00 0.00 70 1014.3
20260503024410 36 268 0.0 0.0 0.00 0.00 0.00 71 1014.3
20260503023907 37 268 0.0 0.0 0.00 0.00 0.00 73 1014.3
20260503023404 37 268 0.0 0.0 0.00 0.00 0.00 72 1014.3
20260503022901 37 268 0.0 0.0 0.00 0.00 0.00 72 1014.3
20260503022355 37 268 0.0 0.0 0.00 0.00 0.00 72 1014.3
20260503021852 38 268 0.0 0.0 0.00 0.00 0.00 72 1014.3
20260503021348 38 268 0.0 0.0 0.00 0.00 0.00 72 1014.3
20260503020845 37 268 0.0 0.0 0.00 0.00 0.00 70 1014.3
20260503020343 37 268 0.0 0.0 0.00 0.00 0.00 72 1014.3
20260503015839 38 268 0.0 0.0 0.00 0.00 0.00 71 1014.3
20260503015337 38 268 0.0 0.0 0.00 0.00 0.00 70 1014.3
20260503014832 38 268 0.0 0.0 0.00 0.00 0.00 68 1014.3
20260503014330 38 263 0.0 0.9 0.00 0.00 0.00 66 1014.3
20260503013827 38 270 0.0 0.0 0.00 0.00 0.00 67 1014.3
20260503013325 39 270 0.0 0.0 0.00 0.00 0.00 66 1014.3
20260503012822 39 270 0.0 0.0 0.00 0.00 0.00 65 1014.3
20260503012319 39 270 0.0 0.0 0.00 0.00 0.00 64 1014.3
20260503011816 39 269 0.0 0.0 0.00 0.00 0.00 64 1014.3
20260503011313 39 287 0.0 0.0 0.00 0.00 0.00 65 1014.3
20260503010809 39 287 0.0 0.0 0.00 0.00 0.00 64 1014.0
20260503010307 39 287 0.0 0.0 0.00 0.00 0.00 62 1014.3
20260503005803 40 276 0.0 0.0 0.00 0.00 0.00 60 1014.0
20260503005301 40 287 0.0 0.0 0.00 0.00 0.00 59 1014.3
20260503004756 41 290 0.0 0.0 0.00 0.00 0.00 65 1014.0
20260503004255 41 314 0.0 0.0 0.00 0.00 0.00 62 1014.0
20260503003751 42 279 0.0 0.0 0.00 0.00 0.00 61 1014.0
20260503003249 42 296 0.0 0.0 0.00 0.00 0.00 53 1014.0
20260503002745 42 284 0.0 0.0 0.00 0.00 0.00 54 1014.0
20260503002242 43 272 0.0 0.0 0.00 0.00 0.00 58 1014.0
20260503001738 43 271 0.0 0.0 0.00 0.00 0.00 51 1014.0
20260503001235 44 275 0.0 0.0 0.00 0.00 0.00 52 1014.0
20260503000733 46 134 1.7 3.5 0.00 0.00 0.00 42 1014.0
20260503000230 46 202 0.9 2.6 0.00 0.00 0.00 39 1014.3
20260502235727 47 354 0.0 0.9 0.00 0.00 0.00 40 1014.0
20260502235225 47 343 0.0 0.0 0.00 0.00 0.00 38 1014.0
20260502234721 46 228 0.0 0.9 0.00 0.00 0.00 43 1014.3
20260502234218 47 221 0.9 1.7 0.00 0.00 0.00 39 1014.0
20260502233714 47 242 0.0 0.9 0.00 0.00 0.00 40 1014.3
20260502233211 46 183 0.9 3.5 0.00 0.00 0.00 39 1014.3
20260502232706 47 66 1.7 2.6 0.00 0.00 0.00 41 1014.0
20260502232204 48 132 1.7 2.6 0.00 0.00 0.00 38 1014.0
20260502231700 48 244 0.0 0.9 0.00 0.00 0.00 29 1014.0
20260502231158 49 271 1.7 2.6 0.00 0.00 0.00 30 1014.3
20260502230657 48 45 0.0 2.6 0.00 0.00 0.00 32 1014.0
20260502230155 49 16 0.9 5.2 0.00 0.00 0.00 31 1014.3
20260502225650 49 284 0.0 0.9 0.00 0.00 0.00 31 1014.0
20260502225148 49 358 0.9 3.5 0.00 0.00 0.00 34 1014.3
20260502224644 47 348 1.7 3.5 0.00 0.00 0.00 34 1014.0
20260502224141 47 337 2.6 6.1 0.00 0.00 0.00 33 1014.3
20260502223638 47 36 0.9 2.6 0.00 0.00 0.00 34 1014.3
20260502223136 47 309 0.0 5.2 0.00 0.00 0.00 35 1014.3
20260502222634 48 327 0.0 0.9 0.00 0.00 0.00 34 1014.3
20260502222125 47 304 0.0 5.2 0.00 0.00 0.00 38 1014.3
20260502221620 47 307 0.9 1.7 0.00 0.00 0.00 36 1014.3
20260502221117 47 296 0.9 1.7 0.00 0.00 0.00 35 1014.3
20260502220614 47 307 0.0 1.7 0.00 0.00 0.00 36 1014.3
20260502220110 47 282 0.9 2.6 0.00 0.00 0.00 38 1014.3
20260502215607 47 273 3.5 7.8 0.00 0.00 0.00 36 1014.3
20260502215104 47 294 0.0 6.1 0.00 0.00 0.00 36 1014.3
20260502214600 47 305 1.7 5.2 0.00 0.00 0.00 38 1014.3
20260502214058 47 300 1.7 2.6 0.00 0.00 0.00 38 1014.3
20260502213555 47 270 0.9 2.6 0.00 0.00 0.00 35 1014.3
20260502213052 47 288 3.5 7.0 0.00 0.00 0.00 36 1014.3
20260502212551 48 262 0.9 5.2 0.00 0.00 0.00 38 1014.3
20260502212049 47 313 0.0 0.9 0.00 0.00 0.00 36 1014.3
20260502211544 47 267 0.0 2.6 0.00 0.00 0.00 38 1014.3
20260502211042 47 281 0.0 3.5 0.00 0.00 0.00 38 1014.3
20260502210538 47 296 0.9 1.7 0.00 0.00 0.00 37 1014.3
20260502210036 47 349 0.9 1.7 0.00 0.00 0.00 39 1014.3
20260502205532 46 283 1.7 6.1 0.00 0.00 0.00 37 1014.7
20260502205029 46 312 0.9 7.0 0.00 0.00 0.00 39 1014.7
20260502204526 47 294 1.7 6.1 0.00 0.00 0.00 35 1014.3
20260502204024 47 276 3.5 5.2 0.00 0.00 0.00 35 1014.3
20260502203520 47 304 0.0 5.2 0.00 0.00 0.00 36 1014.3
20260502203017 47 13 0.9 6.1 0.00 0.00 0.00 36 1014.7
20260502202513 47 279 2.6 2.6 0.00 0.00 0.00 38 1014.7
20260502202012 47 298 0.9 2.6 0.00 0.00 0.00 40 1014.7
20260502201508 47 294 0.9 3.5 0.00 0.00 0.00 37 1014.7
20260502201004 47 271 0.9 1.7 0.00 0.00 0.00 34 1014.7
20260502200500 48 311 0.0 1.7 0.00 0.00 0.00 35 1015.0
20260502195958 47 295 0.9 3.5 0.00 0.00 0.00 38 1014.7
20260502195455 48 334 0.9 1.7 0.00 0.00 0.00 39 1014.7
20260502194951 47 306 0.9 2.6 0.00 0.00 0.00 39 1014.7
20260502194448 47 328 3.5 6.1 0.00 0.00 0.00 37 1015.0
20260502193944 47 210 2.6 6.1 0.00 0.00 0.00 36 1015.0
20260502193442 47 297 2.6 6.1 0.00 0.00 0.00 39 1015.0
20260502192937 47 306 1.7 3.5 0.00 0.00 0.00 36 1015.0
20260502192434 46 314 0.9 2.6 0.00 0.00 0.00 38 1015.4
20260502191931 46 326 0.9 2.6 0.00 0.00 0.00 35 1015.4
20260502191429 47 301 1.7 3.5 0.00 0.00 0.00 37 1015.0
20260502190926 47 291 0.0 3.5 0.00 0.00 0.00 36 1015.4
20260502190423 46 321 0.0 1.7 0.00 0.00 0.00 39 1015.4
20260502185919 46 309 0.0 1.7 0.00 0.00 0.00 38 1015.4
20260502185415 47 355 0.9 1.7 0.00 0.00 0.00 40 1015.4
20260502184912 46 316 1.7 2.6 0.00 0.00 0.00 39 1015.4
20260502184408 46 336 0.0 0.9 0.00 0.00 0.00 42 1015.4
20260502183905 46 304 0.0 5.2 0.00 0.00 0.00 40 1015.4
20260502183400 45 282 0.0 0.0 0.00 0.00 0.00 43 1015.4
20260502182856 46 299 0.9 7.0 0.00 0.00 0.00 41 1015.8
20260502182352 45 321 0.9 3.5 0.00 0.00 0.00 44 1015.4
20260502181848 45 314 0.9 3.5 0.00 0.00 0.00 42 1015.4
20260502181347 44 317 0.9 6.1 0.00 0.00 0.00 43 1015.4
20260502180845 44 263 0.0 6.1 0.00 0.00 0.00 45 1015.8